Location: Unspecified
(0.0000°N, 0.0000°E)
Time: 18:57:33
(UTC+00:00)

Vanguard 2 Rocket - Pass Details

Date: 20 January 2020
Orbit: 554 x 3327 km, 32.9° (Epoch: 20 February)

Event Time Altitude Azimuth Distance (km) Brightness Sun altitude
Rises 01:20:07 0° 224° (SW) 3,602 - -63.6°
Reaches altitude 10° 01:23:20 10° 215° (SW) 2,334 - -63.1°
Maximum altitude 01:27:56 34° 149° (SSE) 1,014 - -62.3°
Drops below altitude 10° 01:31:35 10° 82° (E) 1,833 - -61.7°
Sets 01:33:48 0° 72° (ENE) 2,710 - -61.3°
